Regional Weather Roundup
Issued by NWS

Home | Current Version | Previous Version | Text Only | Print | Product List | Glossary On
Versions: 1 2 3 4 5 6 7 8 9 10 11 12 13 14 15 16 17 18 19 20 21 22 23 24 25 26 27 28 29 30 31 32 33 34 35 36 37 38 39 40 41 42 43 44 45 46 47 48 49 50
000
ASUS44 KOUN 191610
RWROK

WEATHER ROUNDUP FOR OKLAHOMA
NATIONAL WEATHER SERVICE NORMAN OK
1100 AM CDT THU APR 19 2018

NOTE: "FAIR" INDICATES FEW OR NO CLOUDS BELOW 12,000 FEET WITH NO
      SIGNIFICANT WEATHER AND/OR OBSTRUCTIONS TO VISIBILITY.

OKZ001>007-009>012-014-015-017-191700-
NORTHWEST OKLAHOMA AND THE PANHANDLE

CITY           SKY/WX    TMP DP  RH WIND       PRES   REMARKS
GAGE           SUNNY     56  29  35 NE7       30.43R
GUYMON         CLOUDY    55  29  36 SE10      30.41S
ENID/WOODRING  MOSUNNY   54  34  47 N17       30.44R
$$

OKZ016-021>023-033>039-044-045-191700-
SOUTHWEST OKLAHOMA

CITY           SKY/WX    TMP DP  RH WIND       PRES   REMARKS
LAWTON/REGL    CLOUDY    58  32  37 NE13      30.43R
LAWTON/FT SILL MOSUNNY   58  35  42 E7        30.41R
FREDERICK      MOSUNNY   60  29  30 E12       30.40R
CLINTON        SUNNY     54  30  40 NE13      30.44R
HOBART         SUNNY     58  32  37 E9        30.44R
$$

OKZ018>020-024>031-191700-
CENTRAL OKLAHOMA

CITY           SKY/WX    TMP DP  RH WIND       PRES   REMARKS
OKLAHOMA CITY  CLOUDY    52  28  39 NE14      30.43R
OKC/WILEY POST MOSUNNY   53  30  41 N10G21    30.44R
OKC/TINKER AFB MOSUNNY   53  28  37 N14       30.42S
STILLWATER     SUNNY     54  29  38 NE14G20   30.45R
GUTHRIE        SUNNY     53  30  41 VRB6      30.44S
$$

OKZ008-013-054>072-191700-
NORTHEAST OKLAHOMA

CITY           SKY/WX    TMP DP  RH WIND       PRES   REMARKS
TULSA          MOSUNNY   53  34  48 N12       30.44R
TULSA/JONES    SUNNY     54  33  45 N8        30.45R
PONCA CITY     SUNNY     53  31  42 N14G22    30.45S
BARTLESVILLE   SUNNY     51  32  48 MISG      30.46R
MUSKOGEE       SUNNY     53  32  44 N15       30.45R
$$

OKZ032-040>043-046>053-073>077-191700-
SOUTH CENTRAL/SOUTHEAST OKLAHOMA

CITY           SKY/WX    TMP DP  RH WIND       PRES   REMARKS
ARDMORE/DWNTWN SUNNY     55  28  35 NE9G18    30.41R
MCALESTER      MOSUNNY   53  32  44 N12       30.43S
$$





USA.gov is the U.S. government's official web portal to all federal, state and local government web resources and services.